Preview of NWS' New Version of Forecast
This preview is not operational and should not be used for support decisions.

Regional Weather Roundup (RWR)

Issued by National Weather Service (NWS)

                            
000
ASUS45 KABQ 171310
RWRNM 
NEW MEXICO REGIONAL WEATHER ROUNDUP
NATIONAL WEATHER SERVICE ALBUQUERQUE NM
700 AM MDT SAT AUG 17 2019

NOTE: "FAIR" MEANS FEW OR NO CLOUDS BELOW 12,000 FEET AGL WITH NO
       SIGNIFICANT WEATHER OR OBSTRUCTIONS TO VISION.

      THIS PRODUCT IS RELEASED AS TWO VERSIONS.  ONE VERSION NEAR
      THE TOP OF THE HOUR CONTAINING PRELIMINARY DATA FROM ALBUQUERQUE
      AND OTHER STATIONS.  A FINAL VERSION WITH ADDITIONAL DATA IS 
      ISSUED ABOUT 10 MINUTES AFTER THE HOUR.
 
NMZ501-503-504-510>518-171400-
NORTHWEST PLATEAU/NORTHCENTRAL MOUNTAINS
  
CITY           SKY/WX    TMP DP  RH WIND       PRES   REMARKS
FARMINGTON     FAIR      58  30  34 E7        30.08R                  
LOS ALAMOS       N/A     61  38  43 CALM      30.21R                  
SANTA FE       FAIR      55  44  66 N7        30.15R                  
TAOS             N/A     48  38  68 N5        30.22R                  
ANGEL FIRE     FAIR      33  31  95 CALM      30.31R                  

$$
NMZ402-403-502-505>509-171400-
WESTCENTRAL MOUNTAINS/SOUTHWEST MOUNTAINS
  
CITY           SKY/WX    TMP DP  RH WIND       PRES   REMARKS
GALLUP         FAIR      59  36  42 N5        30.20R                  
GRANTS         FAIR      56  36  46 CALM      30.21S                  
SILVER CITY    FAIR      64  38  37 N9        30.11R                  

$$
NMZ407-409-411-412-171400-
SOUTHERN DESERTS
  
CITY           SKY/WX    TMP DP  RH WIND       PRES   REMARKS
DEMING         FAIR      66  46  48 SW8       30.04R                  
LAS CRUCES     FAIR      68  47  47 W6        30.03R                  
HOLLOMAN AFB   FAIR      73  53  48 NW5       30.02R                  
ALAMOGORDO     FAIR      72  50  46 SE3       30.00R                  
T OR C         FAIR      73  35  25 NW9       30.06R                  

$$
NMZ519>523-171400-
CENTRAL VALLEYS/CENTRAL HIGHLANDS
  
CITY           SKY/WX    TMP DP  RH WIND       PRES   REMARKS
ALBUQUERQUE    FAIR      67  40  37 W5        30.10R                  
DOUBLE EAGLE   PTCLDY    61  37  41 VRB3      30.13R                  
MORIARTY ARPT  FAIR      55  43  63 NE5       30.16R                  
CLINES CORNERS FAIR      66  33  29 NW13      30.20R                  
BELEN          FAIR      65  32  28 W9        30.09R                  
SOCORRO        FAIR      69  33  27 N6        30.07R                  

$$
NMZ524>526-539-540-171400-
SOUTHCENTRAL MOUNTAINS
  
CITY           SKY/WX    TMP DP  RH WIND       PRES   REMARKS
RUIDOSO        FAIR      64  41  42 NW8       30.21R                  

$$
NMZ527>531-171400-
NORTHEAST HIGHLANDS/NORTHEAST PLAINS
  
CITY           SKY/WX    TMP DP  RH WIND       PRES   REMARKS
LAS VEGAS      FAIR      59  34  39 NE7       30.15R                  
RATON          FAIR      52  40  63 E6        30.09R                  
CLAYTON        FAIR      65  44  46 W10       29.97R                  

$$
NMZ532>537-171400-
EASTCENTRAL PLAINS
  
CITY           SKY/WX    TMP DP  RH WIND       PRES   REMARKS
TUCUMCARI      FAIR      70  54  56 W9        29.91R                  
CANNON AFB     FAIR      69  55  62 SW9       29.96R                  
CLOVIS AIRPORT FAIR      66  57  72 SW8       29.95S                  

$$
NMZ028-029-538-171400-
SOUTHEAST PLAINS
  
CITY           SKY/WX    TMP DP  RH WIND       PRES   REMARKS
ROSWELL        FAIR      72  56  57 S9        29.92R                  
ARTESIA        FAIR      70  59  68 SW6       29.93S                  
CARLSBAD       FAIR      72  55  55 CALM      29.89R                  
HOBBS          CLEAR     70  57  64 S6        29.94R                  


$$